Location: Unspecified
(0.0000°N, 0.0000°E)
Time: 01:19:17
(UTC+00:00)

Vanguard 1 Rocket - All Passes

Search period start: 21 September 2017 00:00
Search period end: 01 October 2017 00:00
Orbit: 654 x 4223 km, 34.3° (Epoch: 20 September)

Date Brightness Start Highest point End Pass type
(mag) Time Alt. Az. Time Alt. Az. Time Alt. Az.
21 Sep - 01:19:21 10° W 01:39:58 34° SW 01:53:23 10° SSE visible
21 Sep - 09:09:54 10° S 09:12:53 17° SE 09:15:49 10° ESE daylight
21 Sep - 11:33:26 10° W 11:37:47 39° NNW 11:44:00 10° NE daylight
21 Sep - 14:04:07 10° NNW 14:06:18 11° N 14:08:46 10° N daylight
21 Sep - 16:34:41 10° N 16:40:29 13° NNE 16:47:32 10° NE daylight
21 Sep - 18:59:42 10° NNW 19:17:19 33° NNE 19:39:07 10° E visible
21 Sep - 21:27:19 10° NW 21:52:29 74° NE 22:15:22 10° ESE visible
22 Sep - 00:00:46 10° WNW 00:25:41 52° SW 00:42:48 10° SE visible
22 Sep - 02:47:25 10° WSW 02:57:40 16° SSW 03:05:19 10° S visible
22 Sep - 10:22:34 10° SW 10:26:57 85° SE 10:32:19 10° NE daylight
22 Sep - 12:50:15 10° NW 12:53:25 14° NNW 12:57:26 10° NNE daylight
22 Sep - 17:48:32 10° NNW 18:01:13 22° NNE 18:18:06 10° ENE visible
22 Sep - 20:14:25 10° NW 20:36:39 55° NE 21:00:52 10° ESE visible
22 Sep - 22:44:33 10° WNW 23:10:46 73° SW 23:31:16 10° SE visible
23 Sep - 01:24:29 10° W 01:43:18 28° SW 01:56:07 10° SSE visible
23 Sep - 09:12:15 10° SSW 09:16:21 30° SE 09:20:21 10° E daylight
23 Sep - 11:37:41 10° W 11:41:29 23° NNW 11:46:27 10° NNE daylight
23 Sep - 16:38:29 10° N 16:45:20 14° NNE 16:53:56 10° NE daylight
23 Sep - 19:02:32 10° NNW 19:20:51 39° NE 19:44:03 10° E visible
23 Sep - 21:30:11 10° NW 21:55:16 86° NE 22:18:38 10° SE visible
24 Sep - 00:04:49 10° WNW 00:28:38 43° SW 00:45:36 10° SSE visible
24 Sep - 02:54:39 10° SW 03:01:53 13° SSW 03:07:44 10° S visible
24 Sep - 08:02:44 10° S 08:05:09 13° SSE 08:07:22 10° SE daylight
24 Sep - 10:26:07 10° WSW 10:30:23 51° NW 10:35:28 10° NE daylight
24 Sep - 17:51:29 10° NNW 18:05:17 26° NNE 18:24:10 10° E visible
24 Sep - 20:17:11 10° NW 20:39:34 65° NE 21:04:33 10° ESE visible
24 Sep - 22:47:57 10° WNW 23:13:32 62° SW 23:34:09 10° SE visible
25 Sep - 01:30:14 10° WSW 01:46:58 23° SSW 01:58:53 10° SSE visible
25 Sep - 09:15:07 10° SW 09:19:47 56° SE 09:24:14 10° ENE daylight
25 Sep - 11:42:47 10° NW 11:45:18 14° NNW 11:48:14 10° N daylight
25 Sep - 16:41:34 10° N 16:49:54 16° NNE 17:00:50 10° ENE daylight
25 Sep - 19:05:17 10° NNW 19:24:03 47° NE 19:48:28 10° ESE visible
25 Sep - 21:33:14 10° NW 21:57:59 82° SW 22:21:41 10° SE visible
26 Sep - 00:09:23 10° W 00:31:51 36° SW 00:48:23 10° SSE visible
26 Sep - 03:02:13 10° SW 03:06:27 11° SSW 03:10:09 10° S visible
26 Sep - 08:04:31 10° SSW 08:08:53 23° SSE 08:12:28 10° E daylight
26 Sep - 10:30:06 10° W 10:33:54 28° NNW 10:38:13 10° NNE daylight
26 Sep - 17:54:18 10° NNW 18:08:56 31° NE 18:29:39 10° E visible
26 Sep - 20:20:03 10° NW 20:42:20 76° NE 21:07:56 10° ESE visible
26 Sep - 22:51:42 10° WNW 23:16:26 52° SW 23:36:58 10° SE visible
27 Sep - 01:36:34 10° WSW 01:51:03 19° SSW 02:01:46 10° SSE visible
27 Sep - 06:54:21 10° S 06:57:10 13° SSE 06:59:34 10° SE daylight
27 Sep - 09:18:23 10° WSW 09:23:12 76° NW 09:27:41 10° NE daylight
27 Sep - 16:44:21 10° N 16:54:06 19° NNE 17:07:35 10° ENE daylight
27 Sep - 19:08:05 10° NW 19:27:00 56° NE 19:52:25 10° ESE visible
27 Sep - 21:36:29 10° WNW 22:00:44 71° SW 22:24:35 10° SE visible
28 Sep - 00:14:30 10° W 00:35:24 30° SSW 00:51:12 10° SSE visible
28 Sep - 03:09:23 10° SSW 03:11:16 10° SSW 03:13:03 10° S visible
28 Sep - 08:07:04 10° SW 08:12:30 40° SSE 08:16:40 10° ENE daylight
28 Sep - 10:34:46 10° WNW 10:37:29 16° NNW 10:40:25 10° N daylight
28 Sep - 17:57:04 10° NNW 18:12:14 38° NE 18:34:35 10° E visible
28 Sep - 20:23:04 10° NW 20:45:02 88° NE 21:11:03 10° SE visible
28 Sep - 22:55:52 10° W 23:19:33 44° SW 23:39:43 10° SSE visible
29 Sep - 01:43:14 10° SW 01:55:32 17° SSW 02:04:56 10° SSE visible
29 Sep - 06:55:51 10° SSW 07:01:07 21° SSE 07:04:58 10° ESE daylight
29 Sep - 09:22:02 10° WSW 09:26:35 39° NW 09:30:46 10° NNE daylight
29 Sep - 16:47:01 10° NNW 16:57:55 23° NE 17:13:49 10° E daylight
29 Sep - 19:10:57 10° NW 19:29:48 66° NE 19:55:59 10° ESE visible
29 Sep - 21:40:02 10° WNW 22:03:37 60° SW 22:27:22 10° SE visible
30 Sep - 00:20:11 10° WSW 00:39:20 25° SSW 00:54:08 10° SSE visible
30 Sep - 03:13:33 10° SSW 03:16:12 11° S 03:18:38 10° S visible
30 Sep - 05:44:24 10° SSW 05:48:51 14° SSE 05:52:19 10° SE daylight
30 Sep - 08:10:01 10° SW 08:16:01 74° SE 08:20:24 10° ENE daylight
30 Sep - 15:39:10 10° N 15:43:47 12° NNE 15:49:20 10° NE daylight
30 Sep - 17:59:50 10° NNW 18:15:16 46° NE 18:38:56 10° ESE visible
30 Sep - 20:26:15 10° WNW 20:47:48 80° SW 21:13:57 10° SE visible
30 Sep - 23:00:29 10° W 23:23:00 37° SSW 23:42:30 10° SSE visible
